Change the Weather History Date:

Friday, March 9, 2012

  Actual Average Record
Temperature  
Mean Temperature 30 °F -  
Max Temperature 35 °F 45 °F 68 °F (1987)
Min Temperature 25 °F 23 °F -3 °F (1978)
Degree Days  
Heating Degree Days 34    
Moisture  
Dew Point 22 °F    
Average Humidity 68    
Maximum Humidity 94    
Minimum Humidity 52    
Precipitation  
Precipitation 0.00 in - - ()
Sea Level Pressure  
Sea Level Pressure 30.36 in    
Wind  
Wind Speed 11 mph (WNW)    
Max Wind Speed 22 mph    
Max Gust Speed 37 mph    
Visibility 10 miles    
Events Snow    
Averages and records for this station are not official NWS values.
T = Trace of Precipitation, MM = Missing Value Source: NWS Daily Summary

Daily Weather History Graph

Daily Weather History Graph

Search for Another Location

Airport or City:

Trip Planner

Search our weather history database for the weather conditions in past years. The results will help you decide how hot, cold, wet, or windy it might be!

Date:

Astronomy

Mar. 09, 2012 Rise Set
Actual Time 7:03 AM EST 6:42 PM EST
Civil Twilight 6:35 AM EST 7:10 PM EST
Nautical Twilight 6:03 AM EST 7:42 PM EST
Astronomical Twilight 5:30 AM EST 8:15 PM EST
Moon 8:44 PM EST (3/9) 7:19 AM EST (3/9)
Length of Visible Light 12h 34m
Length of Day
11h 39m
Full, 98% of the Moon is Illuminated
Mar 9
Full
Mar 14
Last Quarter
Mar 22
New
Mar 30
First Quarter
Apr 6
Full

Hourly Weather History & Observations

Time (EST) Temp. Windchill Dew Point Humidity Pressure Visibility Wind Dir Wind Speed Gust Speed Precip Events Conditions
12:15 AM 34.3 °F 28.4 °F 26.2 °F 72% 30.15 in 10.0 mi WSW 6.9 mph - N/A   Clear
12:34 AM 33.8 °F 27.7 °F 26.4 °F 74% 30.15 in 10.0 mi SW 6.9 mph - N/A   Clear
12:54 AM 33.8 °F 27.7 °F 26.6 °F 75% 30.15 in 10.0 mi WSW 6.9 mph - N/A   Clear
1:14 AM 34.0 °F 28.0 °F 26.6 °F 74% 30.15 in 10.0 mi SW 6.9 mph - N/A   Scattered Clouds
1:34 AM 33.8 °F 27.7 °F 27.0 °F 76% 30.15 in 10.0 mi SW 6.9 mph - N/A   Clear
1:55 AM 33.4 °F 27.3 °F 27.0 °F 77% 30.14 in 10.0 mi SW 6.9 mph - N/A   Clear
2:14 AM 31.8 °F 24.6 °F 26.8 °F 82% 30.14 in 10.0 mi SSW 8.1 mph - N/A   Scattered Clouds
2:34 AM 33.8 °F 27.7 °F 27.3 °F 77% 30.15 in 10.0 mi SW 6.9 mph - N/A   Mostly Cloudy
2:55 AM 34.7 °F 28.8 °F 27.3 °F 74% 30.14 in 10.0 mi SW 6.9 mph 16.1 mph N/A   Overcast
3:14 AM 34.9 °F 27.7 °F 27.3 °F 74% 30.14 in 10.0 mi SW 9.2 mph - N/A   Overcast
3:35 AM 34.5 °F 27.9 °F 27.1 °F 74% 30.13 in 10.0 mi SW 8.1 mph - N/A   Overcast
3:55 AM 35.1 °F 26.9 °F 27.3 °F 73% 30.14 in 10.0 mi West 11.5 mph - N/A   Overcast
4:14 AM 33.4 °F 22.3 °F 30.6 °F 89% 30.16 in 1.0 mi WNW 18.4 mph 36.8 mph N/A Snow Light Snow
4:35 AM 32.4 °F 20.0 °F 30.9 °F 94% 30.17 in 2.0 mi WNW 21.9 mph 34.5 mph N/A Snow Light Snow
4:54 AM 32.0 °F 20.8 °F 29.1 °F 89% 30.18 in 10.0 mi WNW 17.3 mph 23.0 mph N/A   Mostly Cloudy
5:14 AM 31.5 °F 21.4 °F 25.7 °F 79% 30.20 in 10.0 mi WNW 13.8 mph 21.9 mph N/A   Scattered Clouds
5:35 AM 30.7 °F 20.9 °F 24.6 °F 78% 30.22 in 10.0 mi WNW 12.7 mph 20.7 mph N/A   Clear
5:54 AM 30.7 °F 20.4 °F 23.0 °F 73% 30.22 in 10.0 mi WNW 13.8 mph - N/A   Scattered Clouds
6:14 AM 30.7 °F 21.4 °F 23.0 °F 73% 30.23 in 10.0 mi WNW 11.5 mph 18.4 mph N/A   Mostly Cloudy
6:35 AM 30.0 °F 19.1 °F 22.8 °F 75% 30.25 in 10.0 mi WNW 15.0 mph 18.4 mph N/A   Mostly Cloudy
6:54 AM 29.8 °F 19.8 °F 22.1 °F 73% 30.26 in 10.0 mi WNW 12.7 mph 18.4 mph N/A   Scattered Clouds
7:15 AM 29.8 °F 19.3 °F 21.7 °F 72% 30.27 in 10.0 mi WNW 13.8 mph 18.4 mph N/A   Scattered Clouds
7:34 AM 30.2 °F 19.3 °F 21.2 °F 69% 30.28 in 10.0 mi WNW 15.0 mph 24.2 mph N/A   Scattered Clouds
7:55 AM 30.2 °F 18.9 °F 20.7 °F 68% 30.30 in 10.0 mi WNW 16.1 mph - N/A   Scattered Clouds
8:14 AM 30.7 °F 19.6 °F 20.8 °F 67% 30.31 in 10.0 mi WNW 16.1 mph 26.5 mph N/A   Scattered Clouds
8:34 AM 30.7 °F 20.4 °F 22.6 °F 72% 30.32 in 7.0 mi NW 13.8 mph 23.0 mph N/A Snow Light Snow
8:54 AM 30.9 °F 19.8 °F 21.0 °F 67% 30.33 in 10.0 mi WNW 16.1 mph 21.9 mph N/A   Mostly Cloudy
9:14 AM 30.9 °F 18.7 °F 22.8 °F 72% 30.35 in 7.0 mi WNW 19.6 mph 26.5 mph N/A Snow Light Snow
9:54 AM 29.8 °F 19.8 °F 26.2 °F 86% 30.37 in 7.0 mi WNW 12.7 mph - N/A Snow Light Snow
10:15 AM 30.2 °F 21.9 °F 25.7 °F 83% 30.38 in 10.0 mi NW 9.2 mph - N/A Snow Light Snow
10:35 AM 31.5 °F 19.1 °F 24.6 °F 76% 30.39 in 10.0 mi West 20.7 mph 27.6 mph N/A   Overcast
10:54 AM 31.1 °F 19.7 °F 24.3 °F 76% 30.40 in 10.0 mi WNW 17.3 mph 24.2 mph N/A   Mostly Cloudy
11:15 AM 30.2 °F 19.3 °F 22.5 °F 73% 30.42 in 10.0 mi NW 15.0 mph 25.3 mph N/A   Overcast
11:34 AM 30.9 °F 19.4 °F 23.5 °F 74% 30.42 in 10.0 mi NW 17.3 mph 24.2 mph N/A   Overcast
11:54 AM 32.0 °F 20.5 °F 22.5 °F 68% 30.43 in 10.0 mi WNW 18.4 mph 23.0 mph N/A   Overcast
12:15 PM 31.1 °F 21.4 °F 20.7 °F 65% 30.44 in 10.0 mi WNW 12.7 mph 26.5 mph N/A   Overcast
12:34 PM 32.0 °F 21.6 °F 19.8 °F 61% 30.45 in 10.0 mi NW 15.0 mph 25.3 mph N/A   Mostly Cloudy
12:54 PM 33.4 °F 21.7 °F 20.1 °F 58% 30.44 in 10.0 mi West 20.7 mph 27.6 mph N/A   Overcast
1:14 PM 32.4 °F 21.3 °F 20.5 °F 62% 30.45 in 10.0 mi NW 17.3 mph 23.0 mph N/A   Mostly Cloudy
1:34 PM 32.7 °F 21.8 °F 19.8 °F 59% 30.46 in 10.0 mi WNW 17.3 mph 28.8 mph N/A   Scattered Clouds
1:54 PM 33.6 °F 21.6 °F 19.2 °F 56% 30.45 in 10.0 mi WNW 21.9 mph 28.8 mph N/A   Mostly Cloudy
2:14 PM 33.8 °F 22.8 °F 20.1 °F 57% 30.46 in 10.0 mi West 18.4 mph 26.5 mph N/A   Scattered Clouds
2:34 PM 34.0 °F 24.2 °F 19.2 °F 55% 30.46 in 10.0 mi WNW 15.0 mph 20.7 mph N/A   Scattered Clouds
2:54 PM 33.8 °F 22.8 °F 18.5 °F 54% 30.46 in 10.0 mi NW 18.4 mph 24.2 mph N/A   Scattered Clouds
3:15 PM 33.1 °F 22.2 °F 18.1 °F 54% 30.47 in 10.0 mi WNW 17.3 mph 21.9 mph N/A   Clear
3:34 PM 32.5 °F 22.3 °F 19.0 °F 58% 30.47 in 10.0 mi WNW 15.0 mph 21.9 mph N/A   Scattered Clouds
3:54 PM 32.5 °F 22.3 °F 17.1 °F 53% 30.48 in 10.0 mi WNW 15.0 mph 21.9 mph N/A   Clear
4:15 PM 32.5 °F 22.3 °F 16.5 °F 52% 30.48 in 10.0 mi WNW 15.0 mph 20.7 mph N/A   Clear
4:34 PM 32.2 °F 22.3 °F 17.1 °F 54% 30.49 in 10.0 mi NW 13.8 mph 23.0 mph N/A   Clear
4:55 PM 32.0 °F 22.1 °F 17.6 °F 55% 30.49 in 10.0 mi WNW 13.8 mph 21.9 mph N/A   Clear
5:15 PM 31.6 °F 22.1 °F 16.3 °F 53% 30.49 in 10.0 mi WNW 12.7 mph 23.0 mph N/A   Clear
5:34 PM 31.5 °F 21.4 °F 16.2 °F 53% 30.49 in 10.0 mi WNW 13.8 mph - N/A   Clear
5:55 PM 30.2 °F 20.2 °F 16.2 °F 56% 30.49 in 10.0 mi WNW 12.7 mph 20.7 mph N/A   Clear
6:14 PM 29.8 °F 20.9 °F 16.9 °F 59% 30.50 in 10.0 mi WNW 10.4 mph - N/A   Clear
6:35 PM 28.9 °F 22.8 °F 17.1 °F 61% 30.51 in 10.0 mi NNW 5.8 mph - N/A   Clear
6:54 PM 28.4 °F 22.2 °F 17.8 °F 64% 30.51 in 10.0 mi NNW 5.8 mph - N/A   Clear
7:15 PM 27.5 °F 18.6 °F 17.2 °F 65% 30.51 in 10.0 mi NNW 9.2 mph - N/A   Clear
7:35 PM 27.5 °F 21.1 °F 17.2 °F 65% 30.52 in 10.0 mi NW 5.8 mph - N/A   Clear
7:54 PM 27.3 °F 20.9 °F 17.4 °F 66% 30.52 in 10.0 mi NNW 5.8 mph - N/A   Clear
8:15 PM 26.6 °F 22.6 °F 16.9 °F 67% 30.52 in 10.0 mi NNW 3.5 mph - N/A   Clear
8:34 PM 26.6 °F 20.0 °F 16.9 °F 67% 30.53 in 10.0 mi NW 5.8 mph - N/A   Clear
8:54 PM 26.6 °F 21.2 °F 17.2 °F 68% 30.54 in 10.0 mi NW 4.6 mph - N/A   Clear
9:15 PM 26.4 °F 20.9 °F 17.2 °F 68% 30.54 in 10.0 mi NW 4.6 mph - N/A   Clear
9:34 PM 25.7 °F - 16.7 °F 69% 30.53 in 10.0 mi Calm Calm - N/A   Clear
9:55 PM 25.9 °F - 16.9 °F 69% 30.53 in 10.0 mi Calm Calm - N/A   Clear
10:14 PM 25.3 °F - 16.7 °F 70% 30.52 in 10.0 mi Calm Calm - N/A   Clear
10:34 PM 25.5 °F - 16.7 °F 69% 30.53 in 10.0 mi Calm Calm - N/A   Clear
10:55 PM 25.2 °F 20.9 °F 16.7 °F 70% 30.53 in 10.0 mi North 3.5 mph - N/A   Clear
11:14 PM 24.6 °F - 17.2 °F 74% 30.52 in 10.0 mi Calm Calm - N/A   Clear
11:35 PM 24.4 °F - 17.6 °F 75% 30.52 in 10.0 mi Calm Calm - N/A   Clear
11:55 PM 24.4 °F - 17.2 °F 74% 30.52 in 10.0 mi Calm Calm - N/A   Clear